Weather in Kostiantynivka

Ukraine / Kharkiv Region     49°56′57″N   35°06′41″E
temp.,
°C
wind,
m/s
gust,
m/s
humid.,
%
clouds,
%
prec.,
mm/h
press.,
hPa
HPBL,
m
3 august, tue
tue300:00+20wsw4989100 1.6 1010194
03:00+19w2290100 1.6 101032
06:00+18nw259387 0.0 1011131
09:00+20nnw457951 0.1 1013403
12:00+26nw454394 0.0 10131351
15:00+27nw553739 0.0 10121881
18:00+26nw443810 0.0 10132055
21:00+20n225360 0.0 101415
4 august, wed
wed400:00+21n225125 0.0 101542
03:00+18nnw226094 0.0 101621
06:00+17n336850 0.0 101754
09:00+23n33470 0.0 1017689
12:00+27nw44301 0.0 10172467
15:00+28nw442535 0.0 10172737
18:00+27nnw33275 0.0 10172596
21:00+21ne33405 0.0 101739
5 august, thu
thu500:00+19ese344334 0.0 101750
03:00+17se344615 0.0 101758
06:00+17se374853 0.0 1017135
09:00+24sse573943 0.0 1017519
12:00+28s6730100 0.0 10162224
15:00+30s5627100 0.0 10142620
18:00+27s3634100 0.0 1013163
21:00+23sse4104351 0.0 1012160
6 august, fri
fri600:00+21sse410475 0.0 1012168
03:00+20sse41153100 0.0 1012175
06:00+20sse4952100 0.0 1011176
09:00+27sse4635100 0.0 1009456
12:00+33s572276 0.0 10081656
15:00+35s672336 0.0 10062788
18:00+34s6829100 0.0 10062700
21:00+27sse3744100 0.0 1006104
7 august, sat
sat700:00+21se337493 0.9 100740
03:00+19ese41382100 2.0 1007235
06:00+20e41683100 3.2 1006526
09:00+24ese51268100 3.9 1006591
12:00+26se6955100 0.9 1007789
15:00+26ese355993 3.2 1007603
18:00+26nne3561100 1.2 1006311
21:00+20ese2390100 9.8 100856